KD6VPH Weather Reports


Display with metric or nautical units.
time (UTC)temp
F
wind
direction
speed
MPH
gust
MPH
rain 1hr
in
rain 24hr
in
rain mn
in
humidity
%
barometer
mb
20260505041509 59 224 0.0 0.0 0.00 0.00 0.00 73 1009.9
20260505040509 60 224 0.0 0.0 0.00 0.00 0.00 72 1010.0
20260505035509 60 224 0.0 0.0 0.00 0.00 0.00 71 1009.5
20260505034509 62 224 0.0 0.0 0.00 0.00 0.00 70 1009.6
20260505033509 62 224 0.0 2.0 0.00 0.00 0.00 69 1009.3
20260505032509 63 224 0.0 0.0 0.00 0.00 0.00 68 1009.2
20260505031509 64 224 0.0 1.0 0.00 0.00 0.00 67 1009.2
20260505030509 65 224 0.0 0.0 0.00 0.00 0.00 66 1009.2
20260505025509 66 224 0.0 0.0 0.00 0.00 0.00 65 1009.0
20260505024509 67 224 0.0 2.0 0.00 0.00 0.00 64 1008.9
20260505023509 68 224 0.0 2.0 0.00 0.00 0.00 62 1008.8
20260505022509 69 224 0.0 3.0 0.00 0.00 0.00 61 1008.9
20260505021509 70 283 0.0 0.0 0.00 0.00 0.00 59 1008.8
20260505020509 71 280 0.0 2.0 0.00 0.00 0.00 56 1008.8
20260505015509 72 214 0.0 2.0 0.00 0.00 0.00 55 1008.8
20260505014509 73 231 1.0 4.0 0.00 0.00 0.00 54 1008.8
20260505013509 75 327 0.0 0.0 0.00 0.00 0.00 52 1008.9
20260505012509 75 299 1.0 3.0 0.00 0.00 0.00 50 1008.7
20260505011509 76 341 1.0 4.0 0.00 0.00 0.00 49 1008.7
20260505010509 77 15 1.0 4.0 0.00 0.00 0.00 48 1008.7
20260505005509 77 186 1.0 3.0 0.00 0.00 0.00 47 1008.7
20260505004509 78 226 1.0 2.0 0.00 0.00 0.00 48 1008.7
20260505003509 78 230 1.0 5.0 0.00 0.00 0.00 47 1008.8
20260505001510 78 224 1.0 4.0 0.00 0.00 0.00 47 1008.8
20260505000510 79 143 1.0 2.0 0.00 0.00 0.00 46 1008.7
20260504235510 79 194 1.0 7.0 0.00 0.00 0.00 46 1008.9
20260504234510 80 184 1.0 3.0 0.00 0.00 0.00 46 1009.0
20260504233510 80 333 1.0 5.0 0.00 0.00 0.00 46 1009.0
20260504231510 81 252 2.0 6.0 0.00 0.00 0.00 47 1008.9
20260504225510 81 338 1.0 4.0 0.00 0.00 0.00 47 1008.9
20260504224510 80 316 2.0 4.0 0.00 0.00 0.00 45 1009.0
20260504223510 81 265 1.0 4.0 0.00 0.00 0.00 47 1009.0
20260504222510 81 266 1.0 3.0 0.00 0.00 0.00 47 1009.0
20260504220510 81 300 1.0 2.0 0.00 0.00 0.00 51 1009.0
20260504215510 80 180 0.0 6.0 0.00 0.00 0.00 49 1009.1
20260504214510 80 180 0.0 2.0 0.00 0.00 0.00 52 1009.4
20260504213510 79 332 1.0 1.0 0.00 0.00 0.00 54 1009.3
20260504212510 79 245 1.0 6.0 0.00 0.00 0.00 52 1009.4
20260504211510 78 98 1.0 4.0 0.00 0.00 0.00 54 1009.4
20260504210510 78 81 1.0 2.0 0.00 0.00 0.00 53 1009.4
20260504204618 77 70 1.0 5.0 0.00 0.00 0.00 57 1009.5
20260504204514 77 70 1.0 5.0 0.00 0.00 0.00 57 1009.5
20260504203510 77 1 1.0 3.0 0.00 0.00 0.00 56 1009.5
20260504202510 76 247 1.0 5.0 0.00 0.00 0.00 55 1009.7
20260504201510 76 195 1.0 4.0 0.00 0.00 0.00 58 1009.8
20260504200510 75 201 0.0 2.0 0.00 0.00 0.00 58 1009.8
20260504195510 74 234 1.0 3.0 0.00 0.00 0.00 58 1009.8
20260504193600 73 234 2.0 6.0 0.00 0.00 0.00 60 1009.7
20260504193510 73 234 2.0 6.0 0.00 0.00 0.00 60 1009.7
20260504192510 73 250 1.0 4.0 0.00 0.00 0.00 63 1009.7
20260504191510 72 32 1.0 6.0 0.00 0.00 0.00 62 1009.9
20260504190510 71 86 1.0 2.0 0.00 0.00 0.00 63 1010.0
20260504181510 69 199 1.0 3.0 0.00 0.00 0.00 66 1010.2
20260504140511 48 290 0.0 0.0 0.00 0.00 0.00 89 1008.8
20260504110512 51 290 0.0 0.0 0.00 0.00 0.00 86 1007.8
20260504081512 56 290 0.0 0.0 0.00 0.00 0.00 81 1007.8
20260504080512 56 290 0.0 0.0 0.00 0.00 0.00 80 1007.8
20260504050513 64 290 0.0 0.0 0.00 0.00 0.00 69 1008.0